DLH400 EDDF-KJFK

Flight info

Callsign DLH400
Flight time 7h 46m
Altitude 36000
Route OBOKA3M/25C OBOKA Z29 TORNU DCT VICOT DCT GALSO Q63 ERING L179 UGBET Q60 OKSAW DCT BIBPE DCT TIGWE/N0466F380 DCT FELCA DCT FADZU DCT NICXI DCT OFSOX DCT SLANY DCT DIMUS DCT MALOT/M082F390 NATE RIKAL/N0469F380 N572A TOPPS DCT ENE PARCH4
Aircraft A346/H-SDE2E3FGHIJ3J4J5M1RWXY/LB1D1

Departure

Time 2026-05-05 09:41
Airport Frankfurt Main Airport (EDDF)

Arrival

Time 2026-05-05 17:27
Airport John F. Kennedy International Airport (KJFK)
Time Latitude Longitude Altitude Speed Heading
2026-05-05 08:53 50.04723 8.56277 364 ft 0 kts 340°
2026-05-05 09:25 50.04721 8.56278 364 ft 2 kts 340°
2026-05-05 09:25 50.04697 8.56292 366 ft 4 kts 340°
2026-05-05 09:25 50.04677 8.56304 366 ft 4 kts 335°
2026-05-05 09:25 50.04658 8.56324 371 ft 4 kts 308°
2026-05-05 09:26 50.04651 8.56347 364 ft 0 kts 277°
2026-05-05 09:26 50.04651 8.56346 364 ft 0 kts 277°
2026-05-05 09:27 50.04651 8.56345 364 ft 0 kts 277°
2026-05-05 09:27 50.04652 8.56340 364 ft 1 kts 277°
2026-05-05 09:27 50.04652 8.56329 371 ft 1 kts 277°
2026-05-05 09:28 50.04653 8.56326 371 ft 0 kts 277°
2026-05-05 09:30 50.04653 8.56317 370 ft 1 kts 272°
2026-05-05 09:30 50.04652 8.56309 370 ft 1 kts 251°
2026-05-05 09:31 50.04647 8.56284 368 ft 4 kts 251°
2026-05-05 09:31 50.04632 8.56234 368 ft 6 kts 243°
2026-05-05 09:31 50.04616 8.56187 366 ft 8 kts 243°
2026-05-05 09:31 50.04586 8.56093 372 ft 11 kts 246°
2026-05-05 09:32 50.04547 8.55980 371 ft 13 kts 219°
2026-05-05 09:32 50.04428 8.55914 370 ft 15 kts 188°
2026-05-05 09:32 50.04319 8.55941 366 ft 17 kts 161°
2026-05-05 09:32 50.04249 8.55938 365 ft 11 kts 204°
2026-05-05 09:33 50.04197 8.55922 366 ft 12 kts 177°
2026-05-05 09:33 50.04114 8.55961 365 ft 12 kts 157°
2026-05-05 09:33 50.04076 8.56064 364 ft 12 kts 80°
2026-05-05 09:33 50.04105 8.56189 368 ft 12 kts 69°
2026-05-05 09:34 50.04135 8.56313 361 ft 12 kts 69°
2026-05-05 09:34 50.04164 8.56437 368 ft 12 kts 70°
2026-05-05 09:34 50.04194 8.56561 368 ft 12 kts 69°
2026-05-05 09:34 50.04223 8.56682 370 ft 12 kts 69°
2026-05-05 09:35 50.04254 8.56809 371 ft 14 kts 69°
2026-05-05 09:35 50.04334 8.57145 370 ft 18 kts 70°
2026-05-05 09:35 50.04381 8.57343 373 ft 20 kts 69°
2026-05-05 09:36 50.04433 8.57560 372 ft 22 kts 69°
2026-05-05 09:36 50.04486 8.57786 375 ft 23 kts 70°
2026-05-05 09:36 50.04545 8.58028 376 ft 25 kts 69°
2026-05-05 09:36 50.04605 8.58278 379 ft 22 kts 70°
2026-05-05 09:37 50.04652 8.58480 380 ft 16 kts 70°
2026-05-05 09:37 50.04645 8.58557 381 ft 7 kts 148°
2026-05-05 09:37 50.04616 8.58574 377 ft 0 kts 160°
2026-05-05 09:38 50.04601 8.58583 380 ft 5 kts 160°
2026-05-05 09:39 50.04557 8.58608 381 ft 8 kts 160°
2026-05-05 09:39 50.04505 8.58626 383 ft 7 kts 203°
2026-05-05 09:39 50.04492 8.58597 383 ft 0 kts 251°
2026-05-05 09:40 50.04431 8.58347 381 ft 56 kts 249°
2026-05-05 09:40 50.04218 8.57467 374 ft 115 kts 250°
2026-05-05 09:40 50.03878 8.56042 364 ft 164 kts 250°
2026-05-05 09:40 50.03442 8.54255 636 ft 182 kts 249°
2026-05-05 09:41 50.02988 8.52400 1161 ft 185 kts 250°
2026-05-05 09:41 50.02529 8.50514 1745 ft 188 kts 244°
2026-05-05 09:41 50.01723 8.48868 2124 ft 200 kts 217°
2026-05-05 09:41 50.00434 8.47965 2529 ft 209 kts 191°
2026-05-05 09:42 49.98989 8.47702 3129 ft 210 kts 186°
2026-05-05 09:42 49.97540 8.47458 3757 ft 209 kts 187°
2026-05-05 09:42 49.96106 8.47147 4421 ft 207 kts 191°
2026-05-05 09:42 49.94694 8.46559 4945 ft 216 kts 198°
2026-05-05 09:43 49.93222 8.45807 5245 ft 231 kts 198°
2026-05-05 09:43 49.91678 8.44830 5561 ft 247 kts 213°
2026-05-05 09:43 49.90507 8.42893 6320 ft 248 kts 237°
2026-05-05 09:43 49.89644 8.40583 7176 ft 247 kts 239°
2026-05-05 09:44 49.88863 8.38187 7948 ft 252 kts 250°
2026-05-05 09:44 49.88545 8.35474 8602 ft 263 kts 270°
2026-05-05 09:44 49.89030 8.32660 9053 ft 283 kts 301°
2026-05-05 09:44 49.90415 8.30401 9683 ft 293 kts 318°
2026-05-05 09:45 49.91970 8.28317 10402 ft 300 kts 317°
2026-05-05 09:45 49.93582 8.26127 10851 ft 316 kts 317°
2026-05-05 09:45 49.95275 8.23802 11220 ft 334 kts 317°
2026-05-05 09:45 49.97035 8.21372 11566 ft 352 kts 316°
2026-05-05 09:46 49.98905 8.18784 12011 ft 366 kts 316°
2026-05-05 09:46 50.00817 8.16132 12742 ft 371 kts 316°
2026-05-05 09:46 50.02751 8.13446 13568 ft 374 kts 316°
2026-05-05 09:46 50.04702 8.10733 14271 ft 378 kts 316°
2026-05-05 09:47 50.06677 8.07981 14920 ft 383 kts 316°
2026-05-05 09:47 50.08671 8.05197 15594 ft 387 kts 316°
2026-05-05 09:47 50.10691 8.02376 16276 ft 392 kts 316°
2026-05-05 09:47 50.12728 7.99527 16938 ft 396 kts 315°
2026-05-05 09:48 50.14793 7.96635 17601 ft 401 kts 315°
2026-05-05 09:48 50.16879 7.93716 18292 ft 404 kts 315°
2026-05-05 09:48 50.18976 7.90772 18912 ft 407 kts 315°
2026-05-05 09:48 50.21086 7.87803 19517 ft 410 kts 315°
2026-05-05 09:49 50.23214 7.84805 20112 ft 413 kts 315°
2026-05-05 09:49 50.25361 7.81779 20708 ft 417 kts 315°
2026-05-05 09:49 50.27523 7.78726 21271 ft 421 kts 316°
2026-05-05 09:49 50.29712 7.75636 21834 ft 425 kts 316°
2026-05-05 09:50 50.31917 7.72519 22397 ft 429 kts 316°
2026-05-05 09:50 50.34175 7.69432 22972 ft 433 kts 319°
2026-05-05 09:50 50.36639 7.66664 23506 ft 439 kts 326°
2026-05-05 09:50 50.39312 7.64314 23960 ft 443 kts 332°
2026-05-05 09:51 50.42130 7.62299 24429 ft 446 kts 334°
2026-05-05 09:51 50.44989 7.60369 24904 ft 449 kts 334°
2026-05-05 09:51 50.47876 7.58424 25317 ft 453 kts 334°
2026-05-05 09:51 50.50782 7.56442 25646 ft 460 kts 334°
2026-05-05 09:52 50.53702 7.54352 26060 ft 463 kts 331°
2026-05-05 09:52 50.56561 7.52002 26519 ft 464 kts 328°
2026-05-05 09:52 50.59332 7.49396 27017 ft 465 kts 324°
2026-05-05 09:52 50.62058 7.46638 27495 ft 467 kts 323°
2026-05-05 09:53 50.64782 7.43821 27938 ft 469 kts 323°
2026-05-05 09:53 50.67522 7.40984 28417 ft 472 kts 324°
2026-05-05 09:53 50.70216 7.38028 28881 ft 471 kts 319°
2026-05-05 09:53 50.72667 7.34636 29445 ft 466 kts 312°
2026-05-05 09:54 50.74811 7.30852 30099 ft 459 kts 304°
2026-05-05 09:54 50.76623 7.26737 30689 ft 453 kts 297°
2026-05-05 09:54 50.78074 7.22431 31263 ft 447 kts 290°
2026-05-05 09:54 50.79289 7.17866 31848 ft 442 kts 288°
2026-05-05 09:55 50.80405 7.13412 32382 ft 440 kts 287°
2026-05-05 09:55 50.81516 7.08921 32943 ft 437 kts 287°
2026-05-05 09:55 50.82641 7.04384 33539 ft 435 kts 286°
2026-05-05 09:55 50.83731 7.00001 34057 ft 432 kts 286°
2026-05-05 09:56 50.84827 6.95595 34447 ft 432 kts 286°
2026-05-05 09:56 50.85941 6.91156 34702 ft 434 kts 287°
2026-05-05 09:56 50.87066 6.86697 34948 ft 437 kts 287°
2026-05-05 09:56 50.88201 6.82208 35198 ft 439 kts 287°
2026-05-05 09:57 50.89338 6.77698 35452 ft 442 kts 287°
2026-05-05 09:57 50.90479 6.73165 35701 ft 443 kts 287°
2026-05-05 09:57 50.91622 6.68616 35876 ft 446 kts 287°
2026-05-05 09:57 50.92770 6.64034 35869 ft 447 kts 287°
2026-05-05 09:58 50.95076 6.54829 35884 ft 450 kts 287°
2026-05-05 09:58 50.97378 6.45571 35879 ft 450 kts 286°
2026-05-05 09:59 50.99672 6.36306 35869 ft 451 kts 286°
2026-05-05 09:59 51.01965 6.27013 35880 ft 451 kts 286°
2026-05-05 10:00 51.04247 6.17728 35874 ft 450 kts 286°
2026-05-05 10:00 51.06524 6.08407 35875 ft 452 kts 286°
2026-05-05 10:01 51.08794 5.99066 35880 ft 453 kts 286°
2026-05-05 10:01 51.11057 5.89702 35876 ft 453 kts 286°
2026-05-05 10:02 51.13312 5.80326 35891 ft 453 kts 286°
2026-05-05 10:02 51.15543 5.71011 35885 ft 453 kts 286°
2026-05-05 10:03 51.17784 5.61596 35893 ft 455 kts 286°
2026-05-05 10:03 51.20028 5.52151 35894 ft 455 kts 286°
2026-05-05 10:04 51.22260 5.42714 35909 ft 453 kts 286°
2026-05-05 10:04 51.24480 5.33291 35910 ft 453 kts 286°
2026-05-05 10:05 51.26689 5.23867 35921 ft 453 kts 286°
2026-05-05 10:05 51.28889 5.14419 35911 ft 454 kts 286°
2026-05-05 10:06 51.31093 5.04946 35910 ft 454 kts 286°
2026-05-05 10:06 51.33287 4.95473 35921 ft 454 kts 286°
2026-05-05 10:07 51.35472 4.85985 35923 ft 454 kts 286°
2026-05-05 10:07 51.37650 4.76485 35941 ft 454 kts 286°
2026-05-05 10:08 51.39818 4.66975 35927 ft 454 kts 286°
2026-05-05 10:08 51.41982 4.57462 35929 ft 454 kts 286°
2026-05-05 10:09 51.44137 4.47942 35932 ft 454 kts 286°
2026-05-05 10:09 51.46284 4.38411 35932 ft 454 kts 286°
2026-05-05 10:10 51.48422 4.28876 35931 ft 454 kts 286°
2026-05-05 10:10 51.50552 4.19331 35937 ft 453 kts 286°
2026-05-05 10:11 51.52649 4.09886 35927 ft 451 kts 286°
2026-05-05 10:11 51.54781 4.00397 35920 ft 451 kts 287°
2026-05-05 10:12 51.56929 3.90918 35922 ft 451 kts 286°
2026-05-05 10:12 51.59066 3.81419 35931 ft 451 kts 287°
2026-05-05 10:13 51.61198 3.71904 35929 ft 452 kts 287°
2026-05-05 10:13 51.63278 3.62588 35929 ft 451 kts 287°
2026-05-05 10:14 51.65338 3.53316 35931 ft 451 kts 287°
2026-05-05 10:14 51.67447 3.43776 35941 ft 451 kts 287°
2026-05-05 10:15 51.69545 3.34224 35947 ft 451 kts 287°
2026-05-05 10:15 51.71291 3.24522 35945 ft 449 kts 279°
2026-05-05 10:16 51.72137 3.14566 35941 ft 447 kts 271°
2026-05-05 10:16 51.72076 3.04566 35943 ft 445 kts 263°
2026-05-05 10:17 51.71301 2.94677 35946 ft 444 kts 260°
2026-05-05 10:17 51.70434 2.84789 35951 ft 446 kts 261°
2026-05-05 10:18 51.69560 2.74867 35945 ft 446 kts 261°
2026-05-05 10:18 51.68681 2.64949 35951 ft 446 kts 260°
2026-05-05 10:19 51.67793 2.55026 35946 ft 446 kts 260°
2026-05-05 10:19 51.67050 2.46794 35953 ft 446 kts 260°
2026-05-05 10:20 51.65996 2.35267 35955 ft 448 kts 261°
2026-05-05 10:20 51.65230 2.26936 35957 ft 448 kts 261°
2026-05-05 10:21 51.64226 2.16107 35957 ft 448 kts 260°
2026-05-05 10:21 51.63295 2.06172 35959 ft 448 kts 260°
2026-05-05 10:22 51.62355 1.96248 35959 ft 448 kts 260°
2026-05-05 10:22 51.62031 1.86204 35968 ft 450 kts 269°
2026-05-05 10:23 51.62086 1.76118 35968 ft 450 kts 269°
2026-05-05 10:23 51.62113 1.66025 35967 ft 450 kts 269°
2026-05-05 10:24 51.62113 1.55934 35967 ft 450 kts 269°
2026-05-05 10:24 51.62098 1.45842 35967 ft 450 kts 269°
2026-05-05 10:25 51.62073 1.35736 35971 ft 451 kts 268°
2026-05-05 10:25 51.62038 1.25613 35973 ft 452 kts 268°
2026-05-05 10:26 51.61993 1.15497 35971 ft 452 kts 268°
2026-05-05 10:26 51.61991 1.05362 35978 ft 452 kts 269°
2026-05-05 10:27 51.62019 0.95250 35976 ft 452 kts 269°
2026-05-05 10:27 51.62035 0.85109 35983 ft 453 kts 269°
2026-05-05 10:28 51.62038 0.75024 35988 ft 453 kts 268°
2026-05-05 10:28 51.62042 0.64843 35983 ft 453 kts 270°
2026-05-05 10:29 51.62444 0.54691 35988 ft 454 kts 273°
2026-05-05 10:29 51.62929 0.44540 35987 ft 454 kts 272°
2026-05-05 10:30 51.63378 0.34366 35979 ft 455 kts 272°
2026-05-05 10:30 51.63803 0.24187 35985 ft 455 kts 272°
2026-05-05 10:31 51.64215 0.14002 35983 ft 455 kts 272°
2026-05-05 10:31 51.64618 0.03818 35982 ft 455 kts 272°
2026-05-05 10:32 51.65011 -0.06372 35991 ft 458 kts 272°
2026-05-05 10:32 51.65406 -0.16633 35988 ft 459 kts 272°
2026-05-05 10:33 51.65808 -0.26920 35987 ft 460 kts 272°
2026-05-05 10:33 51.66203 -0.37206 35986 ft 459 kts 272°
2026-05-05 10:34 51.66587 -0.47502 35986 ft 460 kts 272°
2026-05-05 10:34 51.66959 -0.57720 35985 ft 460 kts 271°
2026-05-05 10:35 51.67328 -0.68088 35981 ft 460 kts 271°
2026-05-05 10:35 51.67682 -0.78317 35977 ft 460 kts 271°
2026-05-05 10:36 51.68030 -0.88616 35975 ft 460 kts 271°
2026-05-05 10:36 51.68368 -0.98911 35988 ft 460 kts 271°
2026-05-05 10:37 51.68700 -1.09243 35986 ft 462 kts 271°
2026-05-05 10:37 51.69019 -1.19595 35985 ft 462 kts 271°
2026-05-05 10:38 51.69334 -1.29946 35984 ft 462 kts 271°
2026-05-05 10:38 51.69637 -1.40309 35985 ft 462 kts 271°
2026-05-05 10:39 51.69933 -1.50674 35988 ft 463 kts 271°
2026-05-05 10:39 51.70217 -1.61059 35986 ft 463 kts 271°
2026-05-05 10:40 51.70628 -1.71434 36000 ft 464 kts 274°
2026-05-05 10:40 51.71633 -1.81746 36001 ft 465 kts 279°
2026-05-05 10:41 51.72897 -1.92001 36006 ft 465 kts 280°
2026-05-05 10:41 51.74219 -2.02227 36011 ft 466 kts 279°
2026-05-05 10:42 51.75940 -2.15883 36012 ft 466 kts 280°
2026-05-05 10:43 51.77417 -2.27805 36011 ft 465 kts 279°
2026-05-05 10:43 51.78681 -2.38080 36014 ft 465 kts 279°
2026-05-05 10:44 51.79917 -2.48338 36012 ft 465 kts 280°
2026-05-05 10:44 51.80950 -2.56873 36009 ft 465 kts 280°
2026-05-05 10:45 51.82188 -2.67148 36007 ft 465 kts 280°
2026-05-05 10:45 51.83415 -2.77471 36004 ft 469 kts 280°
2026-05-05 10:46 51.84642 -2.87851 35987 ft 469 kts 280°
2026-05-05 10:46 51.85856 -2.98245 35988 ft 470 kts 280°
2026-05-05 10:47 51.87067 -3.08660 35993 ft 471 kts 280°
2026-05-05 10:47 51.88269 -3.19086 36002 ft 471 kts 280°
2026-05-05 10:48 51.89462 -3.29532 36006 ft 471 kts 280°
2026-05-05 10:48 51.90647 -3.39982 36017 ft 471 kts 280°
2026-05-05 10:49 51.91820 -3.50446 36017 ft 473 kts 280°
2026-05-05 10:49 51.92992 -3.60945 36019 ft 473 kts 280°
2026-05-05 10:50 51.94154 -3.71443 36030 ft 472 kts 280°
2026-05-05 10:50 51.95306 -3.81957 36030 ft 473 kts 280°
2026-05-05 10:51 51.96445 -3.92470 36026 ft 473 kts 280°
2026-05-05 10:51 51.97575 -4.03002 36030 ft 474 kts 280°
2026-05-05 10:52 51.98703 -4.13579 36034 ft 475 kts 281°
2026-05-05 10:52 51.99827 -4.24156 36035 ft 475 kts 280°
2026-05-05 10:53 52.00937 -4.34733 36040 ft 475 kts 280°
2026-05-05 10:53 52.02030 -4.45264 36041 ft 474 kts 281°
2026-05-05 10:54 52.03117 -4.55814 36048 ft 472 kts 280°
2026-05-05 10:54 52.04188 -4.66342 36048 ft 473 kts 280°
2026-05-05 10:55 52.05158 -4.75914 36054 ft 473 kts 280°
2026-05-05 10:55 52.06190 -4.86224 36054 ft 473 kts 280°
2026-05-05 10:56 52.07153 -4.95948 36056 ft 473 kts 280°
2026-05-05 10:56 52.08193 -5.06492 36060 ft 471 kts 280°
2026-05-05 10:57 52.09219 -5.17031 36060 ft 471 kts 280°
2026-05-05 10:57 52.10273 -5.27567 36060 ft 471 kts 280°
2026-05-05 10:58 52.11339 -5.38085 36063 ft 471 kts 280°
2026-05-05 10:58 52.12386 -5.48620 36060 ft 471 kts 280°
2026-05-05 10:59 52.13426 -5.59167 36066 ft 471 kts 280°
2026-05-05 10:59 52.14455 -5.69713 36065 ft 471 kts 280°
2026-05-05 11:00 52.15471 -5.80222 36067 ft 467 kts 279°
2026-05-05 11:00 52.16688 -5.90611 36070 ft 466 kts 282°
2026-05-05 11:01 52.18050 -6.00931 36072 ft 464 kts 282°
2026-05-05 11:01 52.19392 -6.11143 36071 ft 463 kts 282°
2026-05-05 11:02 52.20733 -6.21433 36069 ft 464 kts 282°
2026-05-05 11:02 52.22063 -6.31743 36066 ft 463 kts 282°
2026-05-05 11:03 52.23381 -6.42046 36071 ft 463 kts 282°
2026-05-05 11:03 52.24689 -6.52326 36068 ft 461 kts 282°
2026-05-05 11:04 52.25986 -6.62615 36081 ft 461 kts 282°
2026-05-05 11:04 52.27271 -6.72885 36080 ft 460 kts 282°
2026-05-05 11:05 52.28546 -6.83142 36086 ft 461 kts 282°
2026-05-05 11:05 52.29815 -6.93436 36092 ft 461 kts 282°
2026-05-05 11:06 52.31071 -7.03704 36091 ft 458 kts 282°
2026-05-05 11:06 52.32316 -7.13922 36093 ft 458 kts 281°
2026-05-05 11:07 52.33548 -7.24163 36090 ft 458 kts 281°
2026-05-05 11:07 52.34770 -7.34394 36089 ft 457 kts 281°
2026-05-05 11:08 52.35984 -7.44625 36085 ft 457 kts 281°
2026-05-05 11:08 52.37188 -7.54868 36083 ft 458 kts 281°
2026-05-05 11:09 52.38385 -7.65109 36094 ft 457 kts 281°
2026-05-05 11:09 52.39565 -7.75293 36090 ft 457 kts 281°
2026-05-05 11:10 52.40743 -7.85548 36095 ft 458 kts 281°
2026-05-05 11:10 52.41912 -7.95798 36097 ft 457 kts 281°
2026-05-05 11:11 52.43071 -8.06058 36097 ft 457 kts 281°
2026-05-05 11:11 52.44224 -8.16335 36096 ft 457 kts 281°
2026-05-05 11:12 52.45367 -8.26606 36103 ft 457 kts 281°
2026-05-05 11:12 52.46500 -8.36879 36103 ft 457 kts 280°
2026-05-05 11:13 52.47626 -8.47166 36112 ft 457 kts 280°
2026-05-05 11:13 52.48738 -8.57432 36107 ft 457 kts 280°
2026-05-05 11:14 52.49844 -8.67711 36114 ft 457 kts 280°
2026-05-05 11:14 52.50940 -8.77984 36116 ft 457 kts 280°
2026-05-05 11:15 52.52028 -8.88273 36119 ft 456 kts 280°
2026-05-05 11:15 52.53106 -8.98559 36121 ft 456 kts 280°
2026-05-05 11:16 52.54175 -9.08856 36121 ft 456 kts 280°
2026-05-05 11:16 52.55234 -9.19148 36118 ft 456 kts 280°
2026-05-05 11:17 52.56285 -9.29445 36118 ft 456 kts 280°
2026-05-05 11:17 52.57327 -9.39745 36124 ft 456 kts 280°
2026-05-05 11:18 52.58257 -9.49029 36119 ft 456 kts 279°
2026-05-05 11:18 52.59259 -9.59113 36123 ft 456 kts 279°
2026-05-05 11:19 52.60274 -9.69419 36124 ft 456 kts 279°
2026-05-05 11:19 52.61248 -9.79388 36128 ft 455 kts 279°
2026-05-05 11:20 52.62242 -9.89673 36129 ft 455 kts 279°
2026-05-05 11:20 52.63229 -9.99975 36130 ft 455 kts 279°
2026-05-05 11:21 52.64205 -10.10258 36125 ft 455 kts 279°
2026-05-05 11:21 52.64692 -10.15417 36333 ft 456 kts 279°
2026-05-05 11:21 52.65176 -10.20586 36595 ft 456 kts 279°
2026-05-05 11:21 52.65657 -10.25752 36852 ft 456 kts 279°
2026-05-05 11:22 52.66137 -10.30928 37098 ft 457 kts 279°
2026-05-05 11:22 52.67091 -10.41288 37127 ft 457 kts 279°
2026-05-05 11:23 52.68037 -10.51655 37136 ft 457 kts 279°
2026-05-05 11:23 52.68974 -10.62022 37137 ft 457 kts 279°
2026-05-05 11:24 52.69901 -10.72396 37136 ft 457 kts 278°
2026-05-05 11:24 52.70820 -10.82775 37137 ft 457 kts 278°
2026-05-05 11:25 52.71723 -10.93090 37140 ft 457 kts 278°
2026-05-05 11:25 52.72623 -11.03477 37139 ft 457 kts 278°
2026-05-05 11:26 52.73514 -11.13861 37154 ft 456 kts 278°
2026-05-05 11:26 52.74393 -11.24220 37147 ft 455 kts 278°
2026-05-05 11:27 52.75263 -11.34577 37153 ft 455 kts 278°
2026-05-05 11:27 52.76123 -11.44937 37153 ft 454 kts 278°
2026-05-05 11:28 52.76973 -11.55291 37156 ft 454 kts 278°
2026-05-05 11:28 52.77815 -11.65649 37151 ft 455 kts 278°
2026-05-05 11:29 52.78646 -11.76016 37160 ft 455 kts 278°
2026-05-05 11:29 52.79471 -11.86392 37162 ft 455 kts 278°
2026-05-05 11:30 52.80288 -11.96776 37165 ft 455 kts 278°
2026-05-05 11:30 52.81093 -12.07153 37166 ft 455 kts 278°
2026-05-05 11:31 52.81891 -12.17542 37165 ft 455 kts 278°
2026-05-05 11:31 52.82677 -12.27920 37172 ft 454 kts 278°
2026-05-05 11:32 52.83455 -12.38290 37173 ft 454 kts 277°
2026-05-05 11:32 52.84223 -12.48672 37174 ft 454 kts 277°
2026-05-05 11:33 52.84855 -12.57297 37175 ft 454 kts 277°
2026-05-05 11:33 52.85607 -12.67680 37178 ft 454 kts 277°
2026-05-05 11:34 52.86350 -12.78064 37176 ft 453 kts 277°
2026-05-05 11:34 52.87082 -12.88436 37182 ft 453 kts 277°
2026-05-05 11:35 52.87806 -12.98819 37185 ft 453 kts 277°
2026-05-05 11:35 52.88519 -13.09194 37181 ft 453 kts 277°
2026-05-05 11:36 52.89225 -13.19581 37180 ft 453 kts 277°
2026-05-05 11:36 52.89922 -13.29970 37191 ft 453 kts 277°
2026-05-05 11:37 52.90608 -13.40356 37184 ft 453 kts 277°
2026-05-05 11:37 52.91286 -13.50744 37191 ft 453 kts 276°
2026-05-05 11:38 52.91954 -13.61134 37197 ft 453 kts 276°
2026-05-05 11:38 52.92614 -13.71533 37194 ft 453 kts 276°
2026-05-05 11:39 52.93265 -13.81930 37204 ft 453 kts 276°
2026-05-05 11:39 52.93906 -13.92317 37199 ft 452 kts 276°
2026-05-05 11:40 52.94537 -14.02708 37270 ft 455 kts 276°
2026-05-05 11:40 52.94847 -14.07873 37619 ft 454 kts 276°
2026-05-05 11:40 52.95157 -14.13085 37944 ft 453 kts 276°
2026-05-05 11:40 52.95465 -14.18290 38138 ft 453 kts 276°
2026-05-05 11:41 52.95772 -14.23509 38190 ft 453 kts 276°
2026-05-05 11:41 52.96379 -14.33937 38198 ft 453 kts 276°
2026-05-05 11:42 52.96975 -14.44355 38199 ft 453 kts 276°
2026-05-05 11:42 52.97563 -14.54790 38207 ft 453 kts 276°
2026-05-05 11:43 52.98140 -14.65215 38209 ft 453 kts 276°
2026-05-05 11:43 52.98709 -14.75652 38209 ft 453 kts 276°
2026-05-05 11:44 52.99267 -14.86088 38213 ft 453 kts 276°
2026-05-05 11:44 53.00140 -14.96455 38212 ft 453 kts 281°
2026-05-05 11:45 53.01626 -15.06617 38217 ft 452 kts 287°
2026-05-05 11:45 53.03678 -15.16514 38220 ft 452 kts 290°
2026-05-05 11:46 53.05876 -15.26329 38218 ft 452 kts 290°
2026-05-05 11:46 53.08502 -15.35821 38215 ft 453 kts 301°
2026-05-05 11:47 53.11860 -15.44697 38215 ft 453 kts 302°
2026-05-05 11:47 53.15204 -15.53597 38217 ft 452 kts 299°
2026-05-05 11:48 53.18784 -15.68122 38223 ft 452 kts 290°
2026-05-05 11:48 53.20902 -15.77924 38229 ft 452 kts 290°
2026-05-05 11:49 53.23034 -15.87799 38222 ft 451 kts 290°
2026-05-05 11:49 53.25163 -15.97677 38227 ft 451 kts 290°
2026-05-05 11:50 53.27286 -16.07566 38228 ft 451 kts 289°
2026-05-05 11:50 53.29399 -16.17453 38223 ft 451 kts 289°
2026-05-05 11:51 53.31506 -16.27356 38227 ft 451 kts 289°
2026-05-05 11:51 53.33605 -16.37271 38229 ft 451 kts 289°
2026-05-05 11:52 53.35696 -16.47194 38243 ft 451 kts 289°
2026-05-05 11:52 53.37779 -16.57128 38234 ft 452 kts 289°
2026-05-05 11:53 53.39855 -16.67079 38228 ft 452 kts 289°
2026-05-05 11:53 53.41920 -16.77029 38233 ft 452 kts 289°
2026-05-05 11:54 53.43979 -16.86996 38232 ft 451 kts 289°
2026-05-05 11:54 53.46029 -16.96969 38238 ft 451 kts 289°
2026-05-05 11:55 53.48070 -17.06951 38239 ft 451 kts 289°
2026-05-05 11:55 53.50103 -17.16942 38235 ft 451 kts 289°
2026-05-05 11:56 53.52130 -17.26953 38246 ft 452 kts 289°
2026-05-05 11:56 53.54148 -17.36973 38240 ft 452 kts 289°
2026-05-05 11:57 53.56156 -17.46994 38235 ft 451 kts 289°
2026-05-05 11:57 53.58155 -17.57020 38240 ft 451 kts 289°
2026-05-05 11:58 53.60145 -17.67055 38242 ft 451 kts 288°
2026-05-05 11:58 53.62128 -17.77102 38244 ft 451 kts 288°
2026-05-05 11:59 53.64103 -17.87162 38246 ft 451 kts 288°
2026-05-05 11:59 53.66055 -17.97164 38245 ft 452 kts 288°
2026-05-05 12:00 53.68028 -18.07322 38243 ft 452 kts 288°
2026-05-05 12:00 53.69981 -18.17429 38250 ft 452 kts 288°
2026-05-05 12:01 53.71925 -18.27541 38251 ft 452 kts 288°
2026-05-05 12:01 53.73848 -18.37595 38247 ft 452 kts 288°
2026-05-05 12:02 53.75775 -18.47730 38252 ft 452 kts 288°
2026-05-05 12:02 53.77695 -18.57878 38240 ft 452 kts 288°
2026-05-05 12:03 53.79605 -18.68038 38252 ft 453 kts 288°
2026-05-05 12:03 53.81510 -18.78220 38254 ft 453 kts 288°
2026-05-05 12:04 53.83407 -18.88411 38253 ft 453 kts 288°
2026-05-05 12:04 53.85297 -18.98621 38252 ft 453 kts 288°
2026-05-05 12:05 53.87177 -19.08830 38256 ft 453 kts 288°
2026-05-05 12:05 53.89049 -19.19057 38256 ft 453 kts 288°
2026-05-05 12:06 53.90910 -19.29286 38252 ft 454 kts 288°
2026-05-05 12:06 53.92766 -19.39537 38254 ft 454 kts 288°
2026-05-05 12:07 53.94613 -19.49798 38263 ft 454 kts 287°
2026-05-05 12:07 53.96453 -19.60076 38259 ft 454 kts 287°
2026-05-05 12:08 53.98283 -19.70357 38257 ft 454 kts 287°
2026-05-05 12:08 54.00105 -19.80657 38267 ft 454 kts 287°
2026-05-05 12:09 54.01909 -19.90960 38255 ft 455 kts 286°
2026-05-05 12:09 54.03219 -20.01430 38261 ft 456 kts 279°
2026-05-05 12:10 54.03813 -20.12190 38264 ft 456 kts 275°
2026-05-05 12:10 54.04243 -20.22977 38268 ft 456 kts 275°
2026-05-05 12:11 54.04662 -20.33771 38270 ft 457 kts 275°
2026-05-05 12:11 54.05073 -20.44579 38267 ft 457 kts 275°
2026-05-05 12:12 54.05476 -20.55408 38266 ft 458 kts 275°
2026-05-05 12:12 54.05871 -20.66238 38272 ft 458 kts 275°
2026-05-05 12:13 54.06257 -20.77076 38270 ft 458 kts 275°
2026-05-05 12:13 54.06634 -20.87921 38271 ft 458 kts 275°
2026-05-05 12:14 54.07000 -20.98767 38269 ft 458 kts 275°
2026-05-05 12:14 54.07355 -21.09611 38260 ft 458 kts 275°
2026-05-05 12:15 54.07703 -21.20465 38273 ft 458 kts 275°
2026-05-05 12:15 54.08040 -21.31324 38275 ft 458 kts 275°
2026-05-05 12:16 54.08368 -21.42182 38276 ft 458 kts 275°
2026-05-05 12:16 54.08686 -21.53040 38278 ft 458 kts 274°
2026-05-05 12:17 54.08993 -21.63898 38262 ft 458 kts 275°
2026-05-05 12:17 54.09290 -21.74770 38273 ft 458 kts 274°
2026-05-05 12:18 54.09579 -21.85638 38272 ft 459 kts 274°
2026-05-05 12:18 54.09858 -21.96508 38282 ft 459 kts 274°
2026-05-05 12:19 54.10127 -22.07382 38275 ft 459 kts 274°
2026-05-05 12:19 54.10386 -22.18259 38282 ft 459 kts 274°
2026-05-05 12:20 54.10594 -22.27299 38285 ft 459 kts 274°
2026-05-05 12:20 54.10873 -22.39940 38278 ft 459 kts 274°
2026-05-05 12:21 54.11066 -22.49054 38287 ft 459 kts 274°
2026-05-05 12:21 54.11288 -22.59930 38278 ft 459 kts 274°
2026-05-05 12:22 54.11500 -22.70816 38287 ft 459 kts 274°
2026-05-05 12:22 54.11700 -22.81702 38282 ft 459 kts 274°
2026-05-05 12:23 54.11891 -22.92596 38288 ft 459 kts 274°
2026-05-05 12:23 54.12075 -23.03505 38289 ft 459 kts 274°
2026-05-05 12:24 54.12248 -23.14402 38293 ft 459 kts 274°
2026-05-05 12:24 54.12410 -23.25235 38293 ft 459 kts 274°
2026-05-05 12:25 54.12563 -23.36143 38268 ft 459 kts 274°
2026-05-05 12:25 54.12705 -23.47058 38285 ft 460 kts 274°
2026-05-05 12:26 54.12839 -23.57970 38289 ft 460 kts 274°
2026-05-05 12:26 54.12963 -23.68878 38287 ft 460 kts 274°
2026-05-05 12:27 54.13077 -23.79792 38292 ft 460 kts 273°
2026-05-05 12:27 54.13180 -23.90713 38291 ft 460 kts 273°
2026-05-05 12:28 54.13273 -24.01620 38289 ft 459 kts 273°
2026-05-05 12:28 54.13357 -24.12524 38295 ft 459 kts 273°
2026-05-05 12:29 54.13431 -24.23444 38295 ft 460 kts 273°
2026-05-05 12:29 54.13496 -24.34361 38296 ft 460 kts 273°
2026-05-05 12:30 54.13550 -24.45269 38299 ft 460 kts 273°
2026-05-05 12:30 54.13594 -24.56191 38288 ft 460 kts 273°
2026-05-05 12:31 54.13629 -24.67104 38301 ft 460 kts 273°
2026-05-05 12:31 54.13654 -24.78030 38304 ft 460 kts 273°
2026-05-05 12:32 54.13669 -24.88943 38303 ft 460 kts 273°
2026-05-05 12:32 54.13674 -24.99870 38295 ft 460 kts 273°
2026-05-05 12:33 54.13669 -25.10794 38281 ft 460 kts 272°
2026-05-05 12:33 54.13653 -25.21714 38303 ft 459 kts 273°
2026-05-05 12:34 54.13629 -25.32551 38303 ft 459 kts 272°
2026-05-05 12:34 54.13594 -25.43456 38306 ft 459 kts 272°
2026-05-05 12:35 54.13550 -25.54371 38308 ft 460 kts 272°
2026-05-05 12:35 54.13497 -25.65279 38313 ft 460 kts 272°
2026-05-05 12:36 54.13432 -25.76192 38305 ft 459 kts 272°
2026-05-05 12:36 54.13358 -25.87092 38308 ft 459 kts 272°
2026-05-05 12:37 54.13275 -25.97992 38310 ft 459 kts 272°
2026-05-05 12:37 54.13182 -26.08887 38313 ft 459 kts 272°
2026-05-05 12:38 54.13078 -26.19795 38314 ft 459 kts 272°
2026-05-05 12:38 54.12965 -26.30687 38301 ft 459 kts 272°
2026-05-05 12:39 54.12841 -26.41562 38314 ft 458 kts 272°
2026-05-05 12:39 54.12709 -26.52435 38308 ft 458 kts 272°
2026-05-05 12:40 54.12567 -26.63301 38308 ft 458 kts 272°
2026-05-05 12:40 54.12414 -26.74173 38321 ft 458 kts 272°
2026-05-05 12:41 54.12253 -26.85045 38290 ft 458 kts 272°
2026-05-05 12:41 54.12082 -26.95826 38316 ft 457 kts 272°
2026-05-05 12:42 54.11901 -27.06660 38323 ft 457 kts 272°
2026-05-05 12:42 54.11711 -27.17502 38324 ft 457 kts 272°
2026-05-05 12:43 54.11510 -27.28338 38324 ft 457 kts 271°
2026-05-05 12:43 54.11300 -27.39173 38324 ft 457 kts 271°
2026-05-05 12:44 54.11080 -27.50005 38312 ft 456 kts 271°
2026-05-05 12:44 54.10850 -27.60823 38325 ft 456 kts 271°
2026-05-05 12:45 54.10612 -27.71626 38328 ft 456 kts 271°
2026-05-05 12:45 54.10364 -27.82441 38328 ft 456 kts 271°
2026-05-05 12:46 54.10105 -27.93265 38325 ft 457 kts 271°
2026-05-05 12:46 54.09836 -28.04116 38327 ft 458 kts 271°
2026-05-05 12:47 54.09557 -28.14980 38327 ft 458 kts 271°
2026-05-05 12:47 54.09268 -28.25835 38327 ft 458 kts 271°
2026-05-05 12:48 54.08969 -28.36697 38327 ft 458 kts 271°
2026-05-05 12:48 54.08661 -28.47558 38326 ft 458 kts 271°
2026-05-05 12:49 54.08342 -28.58418 38327 ft 458 kts 271°
2026-05-05 12:49 54.08012 -28.69267 38322 ft 458 kts 271°
2026-05-05 12:50 54.07676 -28.80108 38328 ft 458 kts 271°
2026-05-05 12:50 54.07329 -28.90958 38328 ft 458 kts 271°
2026-05-05 12:51 54.06972 -29.01800 38329 ft 458 kts 270°
2026-05-05 12:51 54.06604 -29.12652 38323 ft 458 kts 271°
2026-05-05 12:52 54.06225 -29.23513 38315 ft 459 kts 271°
2026-05-05 12:52 54.05839 -29.34360 38322 ft 458 kts 271°
2026-05-05 12:53 54.05444 -29.45193 38324 ft 458 kts 270°
2026-05-05 12:53 54.05037 -29.56041 38331 ft 458 kts 270°
2026-05-05 12:54 54.04409 -29.72290 38327 ft 458 kts 270°
2026-05-05 12:55 54.03977 -29.83120 38312 ft 457 kts 270°
2026-05-05 12:55 54.03551 -29.93899 38321 ft 455 kts 271°
2026-05-05 12:56 54.03552 -30.04643 38324 ft 452 kts 277°
2026-05-05 12:56 54.03967 -30.15321 38329 ft 451 kts 278°
2026-05-05 12:57 54.04397 -30.25997 38321 ft 451 kts 277°
2026-05-05 12:57 54.04816 -30.36661 38323 ft 451 kts 277°
2026-05-05 12:58 54.05226 -30.47307 38318 ft 449 kts 277°
2026-05-05 12:58 54.05619 -30.57935 38323 ft 449 kts 277°
2026-05-05 12:59 54.06004 -30.68563 38320 ft 449 kts 277°
2026-05-05 12:59 54.06380 -30.79201 38321 ft 449 kts 277°
2026-05-05 13:00 54.06927 -30.95159 38323 ft 449 kts 277°
2026-05-05 13:01 54.07628 -31.16434 38309 ft 450 kts 276°
2026-05-05 13:01 54.07960 -31.27021 38308 ft 451 kts 275°
2026-05-05 13:02 54.08284 -31.37701 38316 ft 451 kts 275°
2026-05-05 13:02 54.08599 -31.48379 38312 ft 451 kts 275°
2026-05-05 13:03 54.08905 -31.59057 38313 ft 451 kts 275°
2026-05-05 13:03 54.09207 -31.69741 38304 ft 451 kts 275°
2026-05-05 13:04 54.09497 -31.80445 38295 ft 452 kts 274°
2026-05-05 13:04 54.09773 -31.91161 38296 ft 452 kts 274°
2026-05-05 13:05 54.10041 -32.01877 38303 ft 452 kts 274°
2026-05-05 13:05 54.10303 -32.12604 38300 ft 453 kts 274°
2026-05-05 13:06 54.10555 -32.23356 38299 ft 454 kts 274°
2026-05-05 13:06 54.10757 -32.32305 38279 ft 454 kts 273°
2026-05-05 13:07 54.10995 -32.43060 38292 ft 453 kts 273°
2026-05-05 13:07 54.11215 -32.53808 38285 ft 453 kts 272°
2026-05-05 13:08 54.11428 -32.64560 38276 ft 453 kts 272°
2026-05-05 13:08 54.11632 -32.75315 38283 ft 453 kts 272°
2026-05-05 13:09 54.11827 -32.86073 38280 ft 453 kts 272°
2026-05-05 13:09 54.12015 -32.96829 38274 ft 453 kts 272°
2026-05-05 13:10 54.12194 -33.07537 38275 ft 451 kts 272°
2026-05-05 13:10 54.12357 -33.18253 38267 ft 452 kts 271°
2026-05-05 13:11 54.12513 -33.28973 38263 ft 451 kts 271°
2026-05-05 13:11 54.12659 -33.39693 38263 ft 452 kts 271°
2026-05-05 13:12 54.12796 -33.50400 38566 ft 450 kts 271°
2026-05-05 13:12 54.12861 -33.55751 38843 ft 450 kts 271°
2026-05-05 13:12 54.12925 -33.61102 39069 ft 451 kts 271°
2026-05-05 13:13 54.12994 -33.66452 39246 ft 452 kts 270°
2026-05-05 13:13 54.13054 -33.71825 39244 ft 451 kts 270°
2026-05-05 13:13 54.13155 -33.82543 39246 ft 453 kts 270°
2026-05-05 13:14 54.13254 -33.93243 39256 ft 453 kts 270°
2026-05-05 13:14 54.13345 -34.04090 39256 ft 455 kts 269°
2026-05-05 13:15 54.13423 -34.14841 39243 ft 456 kts 269°
2026-05-05 13:15 54.13495 -34.25638 39252 ft 455 kts 269°
2026-05-05 13:16 54.13555 -34.36459 39241 ft 456 kts 269°
2026-05-05 13:16 54.13608 -34.47263 39234 ft 455 kts 269°
2026-05-05 13:17 54.13649 -34.58073 39236 ft 456 kts 269°
2026-05-05 13:17 54.13684 -34.68883 39231 ft 455 kts 269°
2026-05-05 13:18 54.13703 -34.79705 39235 ft 457 kts 269°
2026-05-05 13:18 54.13726 -34.90539 39224 ft 458 kts 268°
2026-05-05 13:19 54.13727 -35.01512 39223 ft 464 kts 268°
2026-05-05 13:19 54.13721 -35.12525 39221 ft 464 kts 267°
2026-05-05 13:20 54.13699 -35.23548 39209 ft 464 kts 268°
2026-05-05 13:20 54.13675 -35.34567 39209 ft 464 kts 267°
2026-05-05 13:21 54.13633 -35.45577 39202 ft 464 kts 267°
2026-05-05 13:21 54.13593 -35.56609 39207 ft 465 kts 266°
2026-05-05 13:22 54.13536 -35.67655 39192 ft 466 kts 266°
2026-05-05 13:22 54.13468 -35.78643 39191 ft 466 kts 266°
2026-05-05 13:23 54.13388 -35.89798 39186 ft 467 kts 266°
2026-05-05 13:23 54.13301 -36.00806 39175 ft 467 kts 266°
2026-05-05 13:24 54.13202 -36.11901 39176 ft 467 kts 266°
2026-05-05 13:24 54.13098 -36.23013 39169 ft 469 kts 265°
2026-05-05 13:25 54.12979 -36.34146 39160 ft 469 kts 265°
2026-05-05 13:25 54.12848 -36.45282 39155 ft 469 kts 265°
2026-05-05 13:26 54.12707 -36.56428 39150 ft 469 kts 265°
2026-05-05 13:26 54.12557 -36.67558 39151 ft 469 kts 265°
2026-05-05 13:27 54.12399 -36.78715 39143 ft 470 kts 265°
2026-05-05 13:27 54.12227 -36.89874 39142 ft 470 kts 265°
2026-05-05 13:28 54.12046 -37.01023 39126 ft 470 kts 265°
2026-05-05 13:28 54.11855 -37.12184 39125 ft 470 kts 264°
2026-05-05 13:29 54.11653 -37.23330 39118 ft 470 kts 264°
2026-05-05 13:29 54.11441 -37.34472 39117 ft 470 kts 264°
2026-05-05 13:30 54.11221 -37.45538 39124 ft 470 kts 264°
2026-05-05 13:30 54.10986 -37.56758 39113 ft 470 kts 264°
2026-05-05 13:31 54.10746 -37.67836 39109 ft 471 kts 264°
2026-05-05 13:31 54.10492 -37.79021 39105 ft 472 kts 264°
2026-05-05 13:32 54.10228 -37.90214 39103 ft 472 kts 264°
2026-05-05 13:32 54.09953 -38.01391 39092 ft 472 kts 264°
2026-05-05 13:33 54.09668 -38.12585 39107 ft 472 kts 264°
2026-05-05 13:33 54.09373 -38.23772 39097 ft 472 kts 264°
2026-05-05 13:34 54.09067 -38.34946 39091 ft 472 kts 264°
2026-05-05 13:34 54.08751 -38.46109 39091 ft 470 kts 263°
2026-05-05 13:35 54.08426 -38.57261 39089 ft 471 kts 263°
2026-05-05 13:35 54.08088 -38.68451 39091 ft 473 kts 263°
2026-05-05 13:36 54.07742 -38.79641 39087 ft 472 kts 263°
2026-05-05 13:36 54.07384 -38.90814 39078 ft 472 kts 263°
2026-05-05 13:37 54.07015 -39.01973 39084 ft 471 kts 263°
2026-05-05 13:37 54.06637 -39.13130 39077 ft 471 kts 263°
2026-05-05 13:38 54.06248 -39.24292 39076 ft 471 kts 263°
2026-05-05 13:38 54.05850 -39.35439 39075 ft 471 kts 263°
2026-05-05 13:39 54.05445 -39.46515 39095 ft 471 kts 262°
2026-05-05 13:39 54.05022 -39.57745 39079 ft 472 kts 262°
2026-05-05 13:40 54.04594 -39.68821 39077 ft 472 kts 262°
2026-05-05 13:40 54.04153 -39.79971 39072 ft 471 kts 262°
2026-05-05 13:41 54.03697 -39.91194 39074 ft 471 kts 262°
2026-05-05 13:41 54.03221 -40.02323 39078 ft 471 kts 261°
2026-05-05 13:42 54.02602 -40.13346 39079 ft 470 kts 260°
2026-05-05 13:42 54.01939 -40.24506 39069 ft 470 kts 260°
2026-05-05 13:43 54.01278 -40.35581 39070 ft 470 kts 260°
2026-05-05 13:43 54.00615 -40.46601 39063 ft 472 kts 260°
2026-05-05 13:44 53.99938 -40.57710 39069 ft 472 kts 260°
2026-05-05 13:44 53.99251 -40.68822 39057 ft 472 kts 260°
2026-05-05 13:45 53.98555 -40.79917 39059 ft 472 kts 260°
2026-05-05 13:45 53.97847 -40.91022 39058 ft 472 kts 259°
2026-05-05 13:46 53.97131 -41.02111 39054 ft 472 kts 259°
2026-05-05 13:46 53.96404 -41.13198 39056 ft 472 kts 259°
2026-05-05 13:47 53.95666 -41.24284 39052 ft 471 kts 259°
2026-05-05 13:47 53.94919 -41.35362 39062 ft 472 kts 259°
2026-05-05 13:48 53.94159 -41.46463 39049 ft 473 kts 259°
2026-05-05 13:48 53.93389 -41.57570 39047 ft 473 kts 259°
2026-05-05 13:49 53.92608 -41.68673 39046 ft 473 kts 259°
2026-05-05 13:49 53.91818 -41.79771 39040 ft 473 kts 259°
2026-05-05 13:50 53.91017 -41.90858 39054 ft 473 kts 259°
2026-05-05 13:50 53.90204 -42.01951 39031 ft 473 kts 259°
2026-05-05 13:51 53.89382 -42.13052 39026 ft 474 kts 259°
2026-05-05 13:51 53.88550 -42.24147 39025 ft 473 kts 259°
2026-05-05 13:52 53.87708 -42.35229 39015 ft 473 kts 258°
2026-05-05 13:52 53.86856 -42.46301 39011 ft 473 kts 258°
2026-05-05 13:53 53.86139 -42.55501 39020 ft 473 kts 258°
2026-05-05 13:53 53.85269 -42.66558 39013 ft 473 kts 258°
2026-05-05 13:54 53.84389 -42.77609 39007 ft 472 kts 258°
2026-05-05 13:54 53.83500 -42.88648 39006 ft 472 kts 258°
2026-05-05 13:55 53.82600 -42.99675 39004 ft 472 kts 258°
2026-05-05 13:55 53.81690 -43.10703 38997 ft 472 kts 258°
2026-05-05 13:56 53.80771 -43.21720 39012 ft 472 kts 258°
2026-05-05 13:56 53.79840 -43.32756 38993 ft 473 kts 258°
2026-05-05 13:57 53.78897 -43.43798 38990 ft 473 kts 258°
2026-05-05 13:57 53.77944 -43.54832 38984 ft 473 kts 258°
2026-05-05 13:58 53.76981 -43.65859 38975 ft 473 kts 257°
2026-05-05 13:58 53.76009 -43.76879 38988 ft 473 kts 257°
2026-05-05 13:59 53.74544 -43.93271 38973 ft 471 kts 257°
2026-05-05 14:00 53.73049 -44.09711 38961 ft 471 kts 257°
2026-05-05 14:00 53.72041 -44.20666 38966 ft 473 kts 257°
2026-05-05 14:01 53.71018 -44.31653 38959 ft 474 kts 257°
2026-05-05 14:01 53.69985 -44.42650 38957 ft 473 kts 257°
2026-05-05 14:02 53.68944 -44.53616 38937 ft 472 kts 257°
2026-05-05 14:02 53.67894 -44.64569 38935 ft 472 kts 257°
2026-05-05 14:03 53.66833 -44.75518 38923 ft 472 kts 257°
2026-05-05 14:03 53.65762 -44.86462 38921 ft 472 kts 256°
2026-05-05 14:04 53.64682 -44.97397 38930 ft 472 kts 256°
2026-05-05 14:04 53.63593 -45.08312 38925 ft 471 kts 256°
2026-05-05 14:05 53.62492 -45.19242 38913 ft 473 kts 256°
2026-05-05 14:05 53.61380 -45.30181 38898 ft 473 kts 256°
2026-05-05 14:06 53.60257 -45.41120 38895 ft 473 kts 256°
2026-05-05 14:06 53.59126 -45.52041 38880 ft 473 kts 256°
2026-05-05 14:07 53.57984 -45.62953 38889 ft 472 kts 256°
2026-05-05 14:07 53.56835 -45.73846 38875 ft 472 kts 256°
2026-05-05 14:08 53.55676 -45.84725 38865 ft 472 kts 256°
2026-05-05 14:08 53.54508 -45.95596 38857 ft 472 kts 256°
2026-05-05 14:09 53.53328 -46.06469 38866 ft 473 kts 256°
2026-05-05 14:09 53.52144 -46.17295 38863 ft 474 kts 256°
2026-05-05 14:10 53.50943 -46.28172 38846 ft 472 kts 256°
2026-05-05 14:10 53.49726 -46.39111 38844 ft 472 kts 256°
2026-05-05 14:11 53.48507 -46.49959 38846 ft 472 kts 256°
2026-05-05 14:11 53.47280 -46.60794 38830 ft 472 kts 256°
2026-05-05 14:12 53.46043 -46.71625 38824 ft 472 kts 255°
2026-05-05 14:12 53.44795 -46.82451 38825 ft 472 kts 255°
2026-05-05 14:13 53.43539 -46.93260 38818 ft 472 kts 255°
2026-05-05 14:13 53.42269 -47.04092 38811 ft 473 kts 255°
2026-05-05 14:14 53.40988 -47.14933 38805 ft 474 kts 255°
2026-05-05 14:14 53.39707 -47.25696 38802 ft 474 kts 255°
2026-05-05 14:15 53.38405 -47.36534 38797 ft 473 kts 255°
2026-05-05 14:15 53.37095 -47.47344 38786 ft 472 kts 255°
2026-05-05 14:16 53.35779 -47.58130 38784 ft 472 kts 255°
2026-05-05 14:16 53.34452 -47.68917 38767 ft 472 kts 255°
2026-05-05 14:17 53.33118 -47.79681 38767 ft 472 kts 255°
2026-05-05 14:17 53.31769 -47.90465 38768 ft 473 kts 255°
2026-05-05 14:18 53.30410 -48.01247 38758 ft 473 kts 255°
2026-05-05 14:18 53.29042 -48.12027 38747 ft 473 kts 255°
2026-05-05 14:19 53.27668 -48.22787 38745 ft 473 kts 255°
2026-05-05 14:19 53.26285 -48.33539 38739 ft 473 kts 255°
2026-05-05 14:20 53.24890 -48.44291 38726 ft 473 kts 255°
2026-05-05 14:20 53.23485 -48.55020 38732 ft 473 kts 255°
2026-05-05 14:21 53.22070 -48.65737 38727 ft 471 kts 255°
2026-05-05 14:21 53.20652 -48.76423 38720 ft 471 kts 255°
2026-05-05 14:22 53.19221 -48.87125 38708 ft 472 kts 254°
2026-05-05 14:22 53.17779 -48.97806 38704 ft 472 kts 254°
2026-05-05 14:23 53.16329 -49.08479 38688 ft 472 kts 254°
2026-05-05 14:23 53.14869 -49.19150 38695 ft 470 kts 254°
2026-05-05 14:24 53.13405 -49.29780 38691 ft 469 kts 254°
2026-05-05 14:24 53.11933 -49.40378 38688 ft 469 kts 254°
2026-05-05 14:25 53.10454 -49.50964 38665 ft 469 kts 254°
2026-05-05 14:25 53.08964 -49.61555 38682 ft 469 kts 254°
2026-05-05 14:26 53.07460 -49.72157 38679 ft 471 kts 253°
2026-05-05 14:26 53.05945 -49.82741 38655 ft 469 kts 254°
2026-05-05 14:27 53.04439 -49.93211 38649 ft 468 kts 254°
2026-05-05 14:27 53.02609 -50.03653 38647 ft 466 kts 248°
2026-05-05 14:28 53.00262 -50.13699 38649 ft 466 kts 246°
2026-05-05 14:28 52.97876 -50.23620 38632 ft 466 kts 246°
2026-05-05 14:29 52.95466 -50.33594 38635 ft 464 kts 246°
2026-05-05 14:29 52.93056 -50.43522 38630 ft 464 kts 246°
2026-05-05 14:30 52.90642 -50.53433 38629 ft 463 kts 246°
2026-05-05 14:30 52.88218 -50.63332 38624 ft 462 kts 245°
2026-05-05 14:31 52.85781 -50.73241 38618 ft 464 kts 246°
2026-05-05 14:31 52.83329 -50.83140 38617 ft 464 kts 246°
2026-05-05 14:32 52.80877 -50.93020 38612 ft 464 kts 246°
2026-05-05 14:32 52.78423 -51.02869 38607 ft 464 kts 246°
2026-05-05 14:33 52.75953 -51.12729 38596 ft 465 kts 246°
2026-05-05 14:33 52.73477 -51.22578 38594 ft 464 kts 246°
2026-05-05 14:34 52.70991 -51.32407 38590 ft 462 kts 246°
2026-05-05 14:34 52.68504 -51.42212 38589 ft 462 kts 246°
2026-05-05 14:35 52.66026 -51.51932 38591 ft 463 kts 246°
2026-05-05 14:35 52.63503 -51.61787 38579 ft 463 kts 245°
2026-05-05 14:36 52.60992 -51.71550 38580 ft 463 kts 245°
2026-05-05 14:36 52.58493 -51.81218 38574 ft 461 kts 246°
2026-05-05 14:37 52.55980 -51.90912 38573 ft 461 kts 246°
2026-05-05 14:37 52.53463 -52.00581 38566 ft 460 kts 245°
2026-05-05 14:38 52.50934 -52.10248 38566 ft 460 kts 245°
2026-05-05 14:38 52.48395 -52.19913 38563 ft 460 kts 245°
2026-05-05 14:39 52.45849 -52.29560 38568 ft 460 kts 245°
2026-05-05 14:39 52.43297 -52.39191 38565 ft 460 kts 245°
2026-05-05 14:40 52.41171 -52.47186 38558 ft 461 kts 245°
2026-05-05 14:40 52.38602 -52.56806 38556 ft 461 kts 245°
2026-05-05 14:41 52.36029 -52.66403 38565 ft 460 kts 245°
2026-05-05 14:41 52.33452 -52.75975 38562 ft 457 kts 245°
2026-05-05 14:42 52.30876 -52.85498 38564 ft 457 kts 245°
2026-05-05 14:42 52.28289 -52.95028 38558 ft 458 kts 245°
2026-05-05 14:43 52.25699 -53.04529 38561 ft 458 kts 245°
2026-05-05 14:43 52.23098 -53.14029 38557 ft 458 kts 245°
2026-05-05 14:44 52.20493 -53.23504 38556 ft 457 kts 245°
2026-05-05 14:44 52.17884 -53.32958 38550 ft 457 kts 245°
2026-05-05 14:45 52.15267 -53.42404 38550 ft 456 kts 245°
2026-05-05 14:45 52.12644 -53.51831 38554 ft 456 kts 245°
2026-05-05 14:46 52.10012 -53.61251 38551 ft 456 kts 245°
2026-05-05 14:46 52.07373 -53.70657 38544 ft 456 kts 245°
2026-05-05 14:47 52.04727 -53.80051 38549 ft 457 kts 245°
2026-05-05 14:47 52.02071 -53.89447 38549 ft 457 kts 245°
2026-05-05 14:48 51.99405 -53.98838 38555 ft 459 kts 244°
2026-05-05 14:48 51.96728 -54.08228 38546 ft 459 kts 244°
2026-05-05 14:49 51.94027 -54.17654 38544 ft 461 kts 245°
2026-05-05 14:49 51.91319 -54.27084 38546 ft 461 kts 245°
2026-05-05 14:50 51.88601 -54.36502 38551 ft 461 kts 244°
2026-05-05 14:50 51.85176 -54.45244 38550 ft 461 kts 231°
2026-05-05 14:51 51.81021 -54.53186 38550 ft 462 kts 230°
2026-05-05 14:51 51.77037 -54.61323 38549 ft 462 kts 238°
2026-05-05 14:52 51.73656 -54.70144 38554 ft 461 kts 239°
2026-05-05 14:52 51.70306 -54.78978 38555 ft 461 kts 239°
2026-05-05 14:53 51.66948 -54.87792 38553 ft 461 kts 239°
2026-05-05 14:53 51.63619 -54.96492 38559 ft 457 kts 239°
2026-05-05 14:54 51.60280 -55.05189 38562 ft 456 kts 239°
2026-05-05 14:54 51.56932 -55.13877 38562 ft 456 kts 239°
2026-05-05 14:55 51.53584 -55.22543 38556 ft 455 kts 238°
2026-05-05 14:55 51.50234 -55.31180 38539 ft 455 kts 238°
2026-05-05 14:56 51.46877 -55.39802 38549 ft 455 kts 238°
2026-05-05 14:56 51.43513 -55.48408 38553 ft 455 kts 238°
2026-05-05 14:57 51.40142 -55.57006 38546 ft 455 kts 238°
2026-05-05 14:57 51.36764 -55.65593 38540 ft 455 kts 238°
2026-05-05 14:58 51.33372 -55.74190 38524 ft 457 kts 238°
2026-05-05 14:58 51.29959 -55.82811 38546 ft 458 kts 237°
2026-05-05 14:59 51.26540 -55.91418 38549 ft 458 kts 237°
2026-05-05 14:59 51.23120 -56.00000 38550 ft 458 kts 237°
2026-05-05 15:00 51.20266 -56.07136 38543 ft 459 kts 238°
2026-05-05 15:00 51.16236 -56.17167 38551 ft 462 kts 238°
2026-05-05 15:01 51.12760 -56.25812 38540 ft 462 kts 238°
2026-05-05 15:01 51.09278 -56.34439 38539 ft 463 kts 238°
2026-05-05 15:02 51.05785 -56.43060 38540 ft 463 kts 238°
2026-05-05 15:02 51.02293 -56.51630 38553 ft 456 kts 238°
2026-05-05 15:03 50.98866 -56.60033 38551 ft 452 kts 239°
2026-05-05 15:03 50.95440 -56.68415 38547 ft 452 kts 238°
2026-05-05 15:04 50.92009 -56.76777 38553 ft 451 kts 238°
2026-05-05 15:04 50.88579 -56.85110 38555 ft 449 kts 238°
2026-05-05 15:05 50.83458 -56.97494 38566 ft 447 kts 238°
2026-05-05 15:06 50.80046 -57.05712 38568 ft 447 kts 238°
2026-05-05 15:06 50.76623 -57.13932 38575 ft 447 kts 238°
2026-05-05 15:07 50.73196 -57.22143 38577 ft 448 kts 238°
2026-05-05 15:07 50.69765 -57.30333 38602 ft 450 kts 237°
2026-05-05 15:08 50.66300 -57.38570 38604 ft 450 kts 237°
2026-05-05 15:08 50.62966 -57.46472 38626 ft 450 kts 237°
2026-05-05 15:09 50.59491 -57.54685 38624 ft 450 kts 237°
2026-05-05 15:09 50.56011 -57.62885 38633 ft 449 kts 237°
2026-05-05 15:10 50.52810 -57.70407 38666 ft 450 kts 237°
2026-05-05 15:10 50.49440 -57.78302 38666 ft 453 kts 237°
2026-05-05 15:11 50.46496 -57.85179 38682 ft 454 kts 237°
2026-05-05 15:11 50.42977 -57.93375 38670 ft 454 kts 237°
2026-05-05 15:12 50.39556 -58.01313 38696 ft 454 kts 237°
2026-05-05 15:12 50.36011 -58.09524 38698 ft 454 kts 237°
2026-05-05 15:13 50.32630 -58.17330 38707 ft 454 kts 237°
2026-05-05 15:13 50.29214 -58.25194 38695 ft 455 kts 237°
2026-05-05 15:14 50.25720 -58.33198 38702 ft 454 kts 238°
2026-05-05 15:14 50.22203 -58.41246 38697 ft 454 kts 238°
2026-05-05 15:15 50.18629 -58.49399 38715 ft 454 kts 238°
2026-05-05 15:15 50.15103 -58.57416 38728 ft 454 kts 237°
2026-05-05 15:16 50.11535 -58.65503 38715 ft 454 kts 238°
2026-05-05 15:16 50.07941 -58.73619 38717 ft 456 kts 238°
2026-05-05 15:17 50.04333 -58.81750 38717 ft 456 kts 238°
2026-05-05 15:17 50.00721 -58.89861 38738 ft 456 kts 237°
2026-05-05 15:18 49.97116 -58.97934 38737 ft 453 kts 237°
2026-05-05 15:18 49.93528 -59.05933 38739 ft 450 kts 237°
2026-05-05 15:19 49.89954 -59.13890 38737 ft 449 kts 237°
2026-05-05 15:19 49.86374 -59.21834 38742 ft 449 kts 237°
2026-05-05 15:20 49.82788 -59.29767 38750 ft 449 kts 237°
2026-05-05 15:20 49.79202 -59.37671 38743 ft 447 kts 237°
2026-05-05 15:21 49.75623 -59.45541 38756 ft 446 kts 237°
2026-05-05 15:21 49.72047 -59.53382 38756 ft 446 kts 237°
2026-05-05 15:22 49.68465 -59.61214 38756 ft 446 kts 237°
2026-05-05 15:22 49.64876 -59.69036 38756 ft 446 kts 237°
2026-05-05 15:23 49.61274 -59.76861 38755 ft 447 kts 237°
2026-05-05 15:23 49.57662 -59.84687 38760 ft 448 kts 237°
2026-05-05 15:24 49.54043 -59.92506 38763 ft 448 kts 237°
2026-05-05 15:24 49.50430 -60.00288 38768 ft 448 kts 237°
2026-05-05 15:25 49.46829 -60.08030 38763 ft 448 kts 237°
2026-05-05 15:25 49.43181 -60.15844 38769 ft 450 kts 237°
2026-05-05 15:26 49.39521 -60.23653 38774 ft 450 kts 236°
2026-05-05 15:26 49.35859 -60.31446 38773 ft 450 kts 236°
2026-05-05 15:27 49.32191 -60.39232 38764 ft 450 kts 236°
2026-05-05 15:27 49.28507 -60.47033 38777 ft 451 kts 236°
2026-05-05 15:28 49.24818 -60.54822 38780 ft 451 kts 236°
2026-05-05 15:28 49.21747 -60.61287 38781 ft 451 kts 236°
2026-05-05 15:29 49.18047 -60.69053 38786 ft 451 kts 236°
2026-05-05 15:29 49.14345 -60.76799 38788 ft 451 kts 236°
2026-05-05 15:30 49.10642 -60.84529 38795 ft 450 kts 236°
2026-05-05 15:30 49.06932 -60.92249 38800 ft 450 kts 236°
2026-05-05 15:31 49.03219 -60.99956 38791 ft 450 kts 236°
2026-05-05 15:31 48.99503 -61.07641 38792 ft 451 kts 236°
2026-05-05 15:32 48.95777 -61.15329 38791 ft 451 kts 236°
2026-05-05 15:32 48.92042 -61.23012 38801 ft 451 kts 236°
2026-05-05 15:33 48.88304 -61.30680 38806 ft 451 kts 236°
2026-05-05 15:33 48.84559 -61.38339 38791 ft 450 kts 236°
2026-05-05 15:34 48.80822 -61.45960 38801 ft 449 kts 236°
2026-05-05 15:34 48.77086 -61.53561 38802 ft 449 kts 236°
2026-05-05 15:35 48.73345 -61.61149 38806 ft 449 kts 236°
2026-05-05 15:35 48.69600 -61.68724 38793 ft 449 kts 236°
2026-05-05 15:36 48.65862 -61.76259 38802 ft 447 kts 236°
2026-05-05 15:36 48.62125 -61.83777 38803 ft 446 kts 236°
2026-05-05 15:37 48.58385 -61.91276 38804 ft 446 kts 236°
2026-05-05 15:37 48.54640 -61.98762 38809 ft 446 kts 236°
2026-05-05 15:38 48.50908 -62.06196 38808 ft 443 kts 236°
2026-05-05 15:38 48.47186 -62.13600 38810 ft 442 kts 236°
2026-05-05 15:39 48.43461 -62.20991 38808 ft 442 kts 236°
2026-05-05 15:39 48.39739 -62.28354 38810 ft 441 kts 236°
2026-05-05 15:40 48.36025 -62.35680 38800 ft 438 kts 236°
2026-05-05 15:40 48.32354 -62.42902 38803 ft 437 kts 236°
2026-05-05 15:41 48.28632 -62.50207 38805 ft 437 kts 236°
2026-05-05 15:41 48.24934 -62.57442 38807 ft 436 kts 236°
2026-05-05 15:42 48.21256 -62.64622 38777 ft 435 kts 236°
2026-05-05 15:42 48.17569 -62.71798 38786 ft 434 kts 236°
2026-05-05 15:43 48.13880 -62.78960 38792 ft 434 kts 236°
2026-05-05 15:43 48.10190 -62.86105 38804 ft 433 kts 236°
2026-05-05 15:44 48.06494 -62.93242 38799 ft 433 kts 236°
2026-05-05 15:44 48.02801 -63.00356 38796 ft 433 kts 236°
2026-05-05 15:45 47.99104 -63.07458 38787 ft 433 kts 236°
2026-05-05 15:45 47.95403 -63.14549 38790 ft 433 kts 235°
2026-05-05 15:46 47.91695 -63.21636 38794 ft 433 kts 235°
2026-05-05 15:46 47.87985 -63.28707 38793 ft 433 kts 235°
2026-05-05 15:47 47.84268 -63.35774 38789 ft 433 kts 235°
2026-05-05 15:47 47.80550 -63.42823 38790 ft 433 kts 235°
2026-05-05 15:48 47.76826 -63.49867 38779 ft 433 kts 235°
2026-05-05 15:48 47.73101 -63.56896 38767 ft 432 kts 235°
2026-05-05 15:49 47.69369 -63.63917 38785 ft 432 kts 235°
2026-05-05 15:49 47.65635 -63.70924 38777 ft 432 kts 235°
2026-05-05 15:50 47.61896 -63.77921 38782 ft 432 kts 235°
2026-05-05 15:50 47.58155 -63.84906 38762 ft 432 kts 234°
2026-05-05 15:51 47.54412 -63.91880 38772 ft 432 kts 234°
2026-05-05 15:51 47.50686 -63.98799 38774 ft 432 kts 234°
2026-05-05 15:52 47.46936 -64.05746 38775 ft 432 kts 234°
2026-05-05 15:52 47.43184 -64.12682 38775 ft 432 kts 234°
2026-05-05 15:53 47.39421 -64.19620 38767 ft 432 kts 234°
2026-05-05 15:53 47.35652 -64.26553 38775 ft 433 kts 234°
2026-05-05 15:54 47.31875 -64.33481 38774 ft 433 kts 234°
2026-05-05 15:54 47.28092 -64.40398 38781 ft 433 kts 234°
2026-05-05 15:55 47.24309 -64.47300 38771 ft 433 kts 234°
2026-05-05 15:55 47.20516 -64.54204 38778 ft 433 kts 234°
2026-05-05 15:56 47.16719 -64.61097 38777 ft 433 kts 234°
2026-05-05 15:56 47.12921 -64.67977 38769 ft 433 kts 234°
2026-05-05 15:57 47.09114 -64.74853 38757 ft 433 kts 234°
2026-05-05 15:57 47.05308 -64.81711 38765 ft 433 kts 234°
2026-05-05 15:58 47.01498 -64.88560 38764 ft 433 kts 234°
2026-05-05 15:58 46.97710 -64.95353 38769 ft 433 kts 233°
2026-05-05 15:59 46.93869 -65.02224 38751 ft 433 kts 234°
2026-05-05 15:59 46.90079 -65.08984 38769 ft 432 kts 233°
2026-05-05 16:00 46.86260 -65.15781 38772 ft 432 kts 233°
2026-05-05 16:00 46.82438 -65.22568 38786 ft 432 kts 233°
2026-05-05 16:01 46.78621 -65.29330 38772 ft 431 kts 233°
2026-05-05 16:01 46.74797 -65.36084 38784 ft 432 kts 233°
2026-05-05 16:02 46.70965 -65.42837 38784 ft 432 kts 233°
2026-05-05 16:02 46.67130 -65.49579 38785 ft 432 kts 233°
2026-05-05 16:03 46.63292 -65.56308 38791 ft 432 kts 233°
2026-05-05 16:03 46.59448 -65.63037 38784 ft 433 kts 233°
2026-05-05 16:04 46.55589 -65.69770 38791 ft 433 kts 233°
2026-05-05 16:04 46.51730 -65.76487 38790 ft 433 kts 233°
2026-05-05 16:05 46.47866 -65.83197 38788 ft 433 kts 233°
2026-05-05 16:05 46.43998 -65.89899 38787 ft 432 kts 233°
2026-05-05 16:06 46.40130 -65.96583 38788 ft 432 kts 233°
2026-05-05 16:06 46.36267 -66.03242 38799 ft 432 kts 232°
2026-05-05 16:07 46.32392 -66.09906 38794 ft 432 kts 232°
2026-05-05 16:07 46.28544 -66.16509 38791 ft 431 kts 232°
2026-05-05 16:08 46.24675 -66.23131 38793 ft 430 kts 232°
2026-05-05 16:08 46.20807 -66.29734 38797 ft 430 kts 232°
2026-05-05 16:09 46.16933 -66.36332 38798 ft 430 kts 232°
2026-05-05 16:09 46.13060 -66.42912 38792 ft 430 kts 232°
2026-05-05 16:10 46.09187 -66.49478 38807 ft 429 kts 232°
2026-05-05 16:10 46.05313 -66.56031 38806 ft 429 kts 232°
2026-05-05 16:11 46.01435 -66.62574 38786 ft 429 kts 232°
2026-05-05 16:12 45.93675 -66.75622 38795 ft 428 kts 232°
2026-05-05 16:13 45.83965 -66.91862 38784 ft 428 kts 232°
2026-05-05 16:13 45.80083 -66.98322 38794 ft 426 kts 232°
2026-05-05 16:14 45.72373 -67.11122 38809 ft 423 kts 232°
2026-05-05 16:15 45.65331 -67.22759 38793 ft 422 kts 232°
2026-05-05 16:16 45.57033 -67.36409 38808 ft 422 kts 232°
2026-05-05 16:17 45.51979 -67.44689 38807 ft 422 kts 232°
2026-05-05 16:18 45.46190 -67.54141 38809 ft 421 kts 232°
2026-05-05 16:19 45.40395 -67.63569 38811 ft 421 kts 232°
2026-05-05 16:19 45.34591 -67.72978 38809 ft 422 kts 232°
2026-05-05 16:20 45.26731 -67.85440 38826 ft 423 kts 231°
2026-05-05 16:22 45.16879 -68.00914 38822 ft 423 kts 231°
2026-05-05 16:23 45.08976 -68.13265 38832 ft 423 kts 231°
2026-05-05 16:23 45.03065 -68.22469 38833 ft 423 kts 231°
2026-05-05 16:24 44.99099 -68.28627 38825 ft 423 kts 231°
2026-05-05 16:25 44.93138 -68.37856 38799 ft 424 kts 231°
2026-05-05 16:25 44.89158 -68.44000 38292 ft 423 kts 231°
2026-05-05 16:25 44.87166 -68.47069 37988 ft 425 kts 231°
2026-05-05 16:26 44.83169 -68.53223 37831 ft 426 kts 231°
2026-05-05 16:26 44.79160 -68.59380 37819 ft 426 kts 231°
2026-05-05 16:27 44.75146 -68.65530 37814 ft 426 kts 231°
2026-05-05 16:27 44.71129 -68.71672 37835 ft 426 kts 231°
2026-05-05 16:28 44.67119 -68.77788 37819 ft 424 kts 231°
2026-05-05 16:28 44.63117 -68.83879 37819 ft 424 kts 230°
2026-05-05 16:29 44.59112 -68.89963 37815 ft 424 kts 230°
2026-05-05 16:29 44.55097 -68.96051 37812 ft 426 kts 230°
2026-05-05 16:30 44.51072 -69.02138 37823 ft 426 kts 230°
2026-05-05 16:30 44.47037 -69.08224 37822 ft 426 kts 230°
2026-05-05 16:31 44.43002 -69.14299 37826 ft 426 kts 230°
2026-05-05 16:31 44.38955 -69.20383 37829 ft 427 kts 230°
2026-05-05 16:32 44.34925 -69.26423 37822 ft 428 kts 230°
2026-05-05 16:32 44.30862 -69.32499 37830 ft 428 kts 230°
2026-05-05 16:33 44.26602 -69.38317 37829 ft 430 kts 222°
2026-05-05 16:33 44.21871 -69.43461 37840 ft 432 kts 221°
2026-05-05 16:34 44.17111 -69.48583 37851 ft 432 kts 221°
2026-05-05 16:34 44.12360 -69.53709 37859 ft 432 kts 221°
2026-05-05 16:35 44.07610 -69.58837 37853 ft 433 kts 221°
2026-05-05 16:35 44.02845 -69.63971 37870 ft 433 kts 221°
2026-05-05 16:36 43.98099 -69.69076 37865 ft 431 kts 221°
2026-05-05 16:36 43.93349 -69.74180 37848 ft 431 kts 221°
2026-05-05 16:37 43.88589 -69.79284 37866 ft 433 kts 221°
2026-05-05 16:37 43.83896 -69.84302 37865 ft 433 kts 221°
2026-05-05 16:38 43.79164 -69.89352 37857 ft 433 kts 221°
2026-05-05 16:38 43.74389 -69.94440 37852 ft 433 kts 221°
2026-05-05 16:39 43.69620 -69.99507 37851 ft 434 kts 221°
2026-05-05 16:39 43.64887 -70.04526 37849 ft 434 kts 221°
2026-05-05 16:40 43.60100 -70.09594 37837 ft 434 kts 220°
2026-05-05 16:40 43.55606 -70.14342 37848 ft 434 kts 220°
2026-05-05 16:41 43.50834 -70.19369 37847 ft 434 kts 220°
2026-05-05 16:41 43.46030 -70.24422 37848 ft 434 kts 220°
2026-05-05 16:42 43.41236 -70.29457 37840 ft 435 kts 220°
2026-05-05 16:42 43.36417 -70.34498 37846 ft 435 kts 220°
2026-05-05 16:43 43.31591 -70.39541 37848 ft 436 kts 220°
2026-05-05 16:43 43.26765 -70.44578 37819 ft 435 kts 220°
2026-05-05 16:44 43.21942 -70.49602 37840 ft 435 kts 220°
2026-05-05 16:44 43.17149 -70.54581 37842 ft 435 kts 220°
2026-05-05 16:45 43.12337 -70.59567 37844 ft 433 kts 220°
2026-05-05 16:45 43.07531 -70.64538 37846 ft 433 kts 220°
2026-05-05 16:46 43.02727 -70.69496 37842 ft 432 kts 220°
2026-05-05 16:46 42.97923 -70.74443 37842 ft 432 kts 220°
2026-05-05 16:47 42.93110 -70.79391 37853 ft 434 kts 220°
2026-05-05 16:47 42.88281 -70.84336 37852 ft 434 kts 219°
2026-05-05 16:48 42.83230 -70.88879 37872 ft 436 kts 213°
2026-05-05 16:48 42.77843 -70.92682 37871 ft 437 kts 207°
2026-05-05 16:49 42.72167 -70.95711 37879 ft 439 kts 203°
2026-05-05 16:49 42.66402 -70.98488 37880 ft 439 kts 203°
2026-05-05 16:50 42.60648 -71.01261 37865 ft 439 kts 202°
2026-05-05 16:50 42.54877 -71.04034 37877 ft 440 kts 202°
2026-05-05 16:51 42.49112 -71.06793 37890 ft 440 kts 202°
2026-05-05 16:51 42.43338 -71.09552 37874 ft 440 kts 202°
2026-05-05 16:52 42.37572 -71.12303 37887 ft 440 kts 202°
2026-05-05 16:52 42.31796 -71.15051 37889 ft 440 kts 202°
2026-05-05 16:53 42.26025 -71.17792 37887 ft 440 kts 202°
2026-05-05 16:53 42.20258 -71.20528 37897 ft 439 kts 202°
2026-05-05 16:54 42.14492 -71.23254 37903 ft 439 kts 202°
2026-05-05 16:54 42.08724 -71.25978 37914 ft 439 kts 202°
2026-05-05 16:55 42.05861 -71.27327 37682 ft 433 kts 202°
2026-05-05 16:55 42.03068 -71.28641 37409 ft 430 kts 202°
2026-05-05 16:55 42.00211 -71.29987 37145 ft 430 kts 202°
2026-05-05 16:55 41.97428 -71.31296 36869 ft 430 kts 202°
2026-05-05 16:56 41.94597 -71.32626 36611 ft 431 kts 202°
2026-05-05 16:56 41.91763 -71.33955 36341 ft 432 kts 202°
2026-05-05 16:56 41.88934 -71.35280 36055 ft 433 kts 202°
2026-05-05 16:56 41.86081 -71.36617 35800 ft 434 kts 201°
2026-05-05 16:57 41.83225 -71.37953 35538 ft 436 kts 201°
2026-05-05 16:57 41.80368 -71.39333 35256 ft 436 kts 204°
2026-05-05 16:57 41.77568 -71.40899 34896 ft 436 kts 206°
2026-05-05 16:57 41.74832 -71.42667 34445 ft 437 kts 209°
2026-05-05 16:58 41.72169 -71.44632 33902 ft 437 kts 212°
2026-05-05 16:58 41.69596 -71.46784 33288 ft 436 kts 215°
2026-05-05 16:58 41.67111 -71.49122 32690 ft 437 kts 218°
2026-05-05 16:58 41.64720 -71.51640 32060 ft 437 kts 220°
2026-05-05 16:59 41.62383 -71.54249 31391 ft 438 kts 220°
2026-05-05 16:59 41.60039 -71.56860 30706 ft 439 kts 220°
2026-05-05 16:59 41.57685 -71.59475 30021 ft 440 kts 220°
2026-05-05 16:59 41.55330 -71.62093 29248 ft 440 kts 220°
2026-05-05 17:00 41.52978 -71.64706 28506 ft 440 kts 220°
2026-05-05 17:00 41.50629 -71.67313 28015 ft 438 kts 220°
2026-05-05 17:00 41.48286 -71.69910 27631 ft 436 kts 220°
2026-05-05 17:00 41.45959 -71.72490 27192 ft 433 kts 220°
2026-05-05 17:01 41.43648 -71.75048 26739 ft 430 kts 220°
2026-05-05 17:01 41.41356 -71.77582 26264 ft 426 kts 220°
2026-05-05 17:01 41.39082 -71.80095 25808 ft 423 kts 220°
2026-05-05 17:01 41.36822 -71.82588 25363 ft 420 kts 220°
2026-05-05 17:02 41.34583 -71.85056 24910 ft 416 kts 220°
2026-05-05 17:02 41.32358 -71.87507 24465 ft 413 kts 220°
2026-05-05 17:02 41.30156 -71.89931 24036 ft 409 kts 220°
2026-05-05 17:02 41.27970 -71.92336 23593 ft 406 kts 220°
2026-05-05 17:03 41.25803 -71.94719 23086 ft 402 kts 220°
2026-05-05 17:03 41.23654 -71.97078 22636 ft 398 kts 220°
2026-05-05 17:03 41.21533 -71.99402 22200 ft 393 kts 220°
2026-05-05 17:03 41.19443 -72.01692 21772 ft 388 kts 220°
2026-05-05 17:04 41.18070 -72.03193 21551 ft 385 kts 221°
2026-05-05 17:04 41.16015 -72.05438 21141 ft 380 kts 221°
2026-05-05 17:04 41.13983 -72.07661 20748 ft 376 kts 221°
2026-05-05 17:04 41.12013 -72.09911 20344 ft 371 kts 226°
2026-05-05 17:05 41.10383 -72.12536 19948 ft 367 kts 237°
2026-05-05 17:05 41.09165 -72.15493 19501 ft 365 kts 247°
2026-05-05 17:05 41.08302 -72.18660 18983 ft 364 kts 251°
2026-05-05 17:05 41.07513 -72.21843 18533 ft 362 kts 252°
2026-05-05 17:06 41.06735 -72.25012 18076 ft 360 kts 252°
2026-05-05 17:06 41.05963 -72.28156 17617 ft 356 kts 252°
2026-05-05 17:06 41.05196 -72.31264 17189 ft 352 kts 252°
2026-05-05 17:06 41.04435 -72.34335 16772 ft 348 kts 252°
2026-05-05 17:07 41.03680 -72.37371 16340 ft 345 kts 252°
2026-05-05 17:07 41.02931 -72.40376 15935 ft 341 kts 252°
2026-05-05 17:07 41.02189 -72.43348 15527 ft 338 kts 252°
2026-05-05 17:07 41.01452 -72.46298 15115 ft 335 kts 252°
2026-05-05 17:08 41.00729 -72.49183 14724 ft 333 kts 252°
2026-05-05 17:08 41.00002 -72.52083 14325 ft 330 kts 252°
2026-05-05 17:08 40.99281 -72.54957 13915 ft 328 kts 252°
2026-05-05 17:08 40.98564 -72.57809 13478 ft 325 kts 252°
2026-05-05 17:09 40.97854 -72.60638 13061 ft 322 kts 252°
2026-05-05 17:09 40.97156 -72.63414 12800 ft 312 kts 252°
2026-05-05 17:09 40.96484 -72.66075 12678 ft 298 kts 252°
2026-05-05 17:09 40.95839 -72.68619 12550 ft 285 kts 252°
2026-05-05 17:10 40.95224 -72.71050 12431 ft 272 kts 252°
2026-05-05 17:10 40.94626 -72.73407 12315 ft 260 kts 251°
2026-05-05 17:10 40.94071 -72.75597 12220 ft 249 kts 251°
2026-05-05 17:10 40.93520 -72.77731 12119 ft 241 kts 248°
2026-05-05 17:11 40.92697 -72.79640 12009 ft 238 kts 235°
2026-05-05 17:11 40.91490 -72.81263 12007 ft 256 kts 223°
2026-05-05 17:11 40.90045 -72.82705 11992 ft 262 kts 221°
2026-05-05 17:11 40.88573 -72.84134 11995 ft 263 kts 221°
2026-05-05 17:12 40.87091 -72.85562 12008 ft 263 kts 221°
2026-05-05 17:12 40.85607 -72.86986 12010 ft 263 kts 221°
2026-05-05 17:12 40.84124 -72.88409 12012 ft 264 kts 221°
2026-05-05 17:12 40.82637 -72.89835 12011 ft 264 kts 221°
2026-05-05 17:13 40.81147 -72.91260 12012 ft 264 kts 221°
2026-05-05 17:13 40.79669 -72.92673 11949 ft 260 kts 221°
2026-05-05 17:13 40.78208 -72.94071 11515 ft 260 kts 220°
2026-05-05 17:13 40.76741 -72.95475 11124 ft 259 kts 220°
2026-05-05 17:14 40.75285 -72.96866 10753 ft 258 kts 220°
2026-05-05 17:14 40.73838 -72.98247 10395 ft 256 kts 220°
2026-05-05 17:14 40.72403 -72.99617 10035 ft 254 kts 220°
2026-05-05 17:14 40.70979 -73.00976 9653 ft 252 kts 220°
2026-05-05 17:15 40.69626 -73.02418 9242 ft 248 kts 231°
2026-05-05 17:15 40.68812 -73.04391 8852 ft 246 kts 252°
2026-05-05 17:15 40.68636 -73.06646 8466 ft 249 kts 265°
2026-05-05 17:15 40.68636 -73.08927 8094 ft 248 kts 265°
2026-05-05 17:16 40.68636 -73.11203 7719 ft 248 kts 266°
2026-05-05 17:16 40.68639 -73.13474 7351 ft 247 kts 266°
2026-05-05 17:16 40.68646 -73.15738 6983 ft 246 kts 266°
2026-05-05 17:16 40.68931 -73.17990 6542 ft 258 kts 288°
2026-05-05 17:17 40.69974 -73.19978 6185 ft 267 kts 304°
2026-05-05 17:17 40.71233 -73.21773 5931 ft 267 kts 307°
2026-05-05 17:17 40.72522 -73.23543 5733 ft 267 kts 307°
2026-05-05 17:17 40.73812 -73.25310 5520 ft 267 kts 307°
2026-05-05 17:18 40.74917 -73.27222 5297 ft 258 kts 292°
2026-05-05 17:18 40.75689 -73.29343 5057 ft 255 kts 288°
2026-05-05 17:18 40.76387 -73.31494 4804 ft 254 kts 287°
2026-05-05 17:18 40.77063 -73.33636 4583 ft 250 kts 287°
2026-05-05 17:19 40.77721 -73.35733 4367 ft 244 kts 287°
2026-05-05 17:19 40.78358 -73.37772 4158 ft 237 kts 287°
2026-05-05 17:19 40.78978 -73.39757 3954 ft 230 kts 287°
2026-05-05 17:19 40.79581 -73.41691 3791 ft 222 kts 287°
2026-05-05 17:20 40.80160 -73.43536 3655 ft 214 kts 287°
2026-05-05 17:20 40.80726 -73.45349 3526 ft 213 kts 287°
2026-05-05 17:20 40.81207 -73.47179 3403 ft 209 kts 279°
2026-05-05 17:20 40.81404 -73.49066 3275 ft 207 kts 270°
2026-05-05 17:21 40.81435 -73.50978 3151 ft 206 kts 268°
2026-05-05 17:21 40.81438 -73.52868 3017 ft 206 kts 267°
2026-05-05 17:21 40.81440 -73.54758 2985 ft 206 kts 267°
2026-05-05 17:22 40.81442 -73.58528 2976 ft 205 kts 267°
2026-05-05 17:22 40.81271 -73.60379 2954 ft 204 kts 248°
2026-05-05 17:22 40.80593 -73.62011 2929 ft 199 kts 235°
2026-05-05 17:22 40.79681 -73.63293 2932 ft 186 kts 223°
2026-05-05 17:23 40.78663 -73.64296 2993 ft 176 kts 218°
2026-05-05 17:23 40.77650 -73.65168 2936 ft 173 kts 217°
2026-05-05 17:23 40.76642 -73.65987 2745 ft 168 kts 214°
2026-05-05 17:23 40.75649 -73.66769 2513 ft 165 kts 214°
2026-05-05 17:24 40.74675 -73.67532 2290 ft 160 kts 214°
2026-05-05 17:24 40.73742 -73.68260 2078 ft 150 kts 213°
2026-05-05 17:24 40.72873 -73.68941 1872 ft 143 kts 212°
2026-05-05 17:24 40.72021 -73.69613 1728 ft 142 kts 213°
2026-05-05 17:25 40.71186 -73.70272 1520 ft 141 kts 212°
2026-05-05 17:25 40.70617 -73.70714 1407 ft 141 kts 211°
2026-05-05 17:25 40.69502 -73.71594 1169 ft 141 kts 211°
2026-05-05 17:25 40.68665 -73.72247 998 ft 140 kts 210°
2026-05-05 17:26 40.67828 -73.72903 814 ft 139 kts 209°
2026-05-05 17:26 40.66995 -73.73558 647 ft 139 kts 207°
2026-05-05 17:26 40.66164 -73.74206 406 ft 138 kts 207°
2026-05-05 17:26 40.65340 -73.74847 252 ft 137 kts 207°
2026-05-05 17:27 40.64526 -73.75485 64 ft 136 kts 207°
2026-05-05 17:27 40.63779 -73.76072 29 ft 106 kts 210°
2026-05-05 17:27 40.63293 -73.76449 30 ft 62 kts 211°
2026-05-05 17:27 40.62980 -73.76694 29 ft 43 kts 211°
2026-05-05 17:28 40.62765 -73.76862 32 ft 29 kts 211°
2026-05-05 17:28 40.62611 -73.76982 31 ft 19 kts 213°
2026-05-05 17:28 40.62580 -73.77146 33 ft 19 kts 278°
2026-05-05 17:28 40.62665 -73.77246 34 ft 7 kts 345°
2026-05-05 17:29 40.62667 -73.77247 34 ft 0 kts 345°
2026-05-05 17:29 40.62669 -73.77247 34 ft 1 kts 345°
2026-05-05 17:29 40.62692 -73.77255 34 ft 5 kts 351°
2026-05-05 17:30 40.62699 -73.77255 33 ft 0 kts
2026-05-05 17:30 40.62705 -73.77255 33 ft 2 kts
2026-05-05 17:30 40.62741 -73.77241 33 ft 8 kts 20°
2026-05-05 17:31 40.62808 -73.77196 32 ft 13 kts 31°
2026-05-05 17:31 40.62900 -73.77123 31 ft 17 kts 31°
2026-05-05 17:31 40.62985 -73.77100 32 ft 14 kts 315°
2026-05-05 17:31 40.63044 -73.77224 35 ft 18 kts 300°
2026-05-05 17:32 40.63112 -73.77374 36 ft 17 kts 301°
2026-05-05 17:32 40.63169 -73.77498 38 ft 14 kts 301°
2026-05-05 17:32 40.63224 -73.77619 37 ft 18 kts 302°
2026-05-05 17:32 40.63296 -73.77780 36 ft 22 kts 300°
2026-05-05 17:33 40.63377 -73.77963 32 ft 25 kts 299°
2026-05-05 17:33 40.63450 -73.78131 33 ft 14 kts 300°
2026-05-05 17:33 40.63503 -73.78247 33 ft 15 kts 301°
2026-05-05 17:33 40.63558 -73.78370 36 ft 15 kts 301°
2026-05-05 17:34 40.63612 -73.78489 38 ft 15 kts 301°
2026-05-05 17:34 40.63670 -73.78616 37 ft 17 kts 301°
2026-05-05 17:34 40.63732 -73.78752 38 ft 18 kts 301°
2026-05-05 17:34 40.63799 -73.78900 33 ft 20 kts 301°
2026-05-05 17:35 40.63874 -73.79063 31 ft 21 kts 301°
2026-05-05 17:35 40.63938 -73.79204 29 ft 12 kts 301°
2026-05-05 17:35 40.63982 -73.79237 30 ft 7 kts 19°
2026-05-05 17:35 40.64003 -73.79221 33 ft 2 kts 35°
2026-05-05 17:36 40.64025 -73.79199 33 ft 3 kts 40°
2026-05-05 17:36 40.64042 -73.79180 33 ft 3 kts 37°
2026-05-05 17:36 40.64056 -73.79173 33 ft 3 kts
2026-05-05 17:36 40.64083 -73.79186 33 ft 5 kts 330°
2026-05-05 17:37 40.64105 -73.79204 33 ft 2 kts 328°
2026-05-05 17:37 40.64112 -73.79209 33 ft 1 kts 328°
2026-05-05 17:37 40.64113 -73.79210 33 ft 0 kts 327°
2026-05-05 17:37 40.64114 -73.79211 33 ft 0 kts 327°
2026-05-05 17:38 40.64116 -73.79213 33 ft 0 kts 327°